Regional Weather Roundup
Issued by NWS Charleston, WV

Home | Current Version | Previous Version | Text Only | Print | Product List | Glossary Off
Versions: 1 2 3 4 5 6 7 8 9 10 11 12 13 14 15 16 17 18 19 20 21 22 23 24 25 26 27 28 29 30 31 32 33 34 35 36 37 38 39 40 41 42 43 44 45 46 47 48 49 50

000
ASUS41 KRLX 261110
RWRRLX
West Virginia Regional Weather Roundup
National Weather Service Charleston WV
600 AM EST SUN FEB 26 2017

Note: "fair" indicates few or no clouds below 12,000 feet with no
significant weather and/or obstructions to visibility.

WVZ003-261200-
Northern Panhandle of West Virginia

CITY           SKY/WX    TMP DP  RH WIND       PRES   REMARKS
WHEELING       CLOUDY    27  16  63 W10G18    30.04R
$$

WVZ009-261200-
Northwest West Virginia

CITY           SKY/WX    TMP DP  RH WIND       PRES   REMARKS
PARKERSBURG    CLOUDY    31  13  47 W9G17     30.12R
$$

WVZ006-261200-
Western West Virginia

CITY           SKY/WX    TMP DP  RH WIND       PRES   REMARKS
HUNTINGTON     CLEAR     28  17  63 SW5       30.14R
$$

WVZ015-261200-
West Central West Virginia

CITY           SKY/WX    TMP DP  RH WIND       PRES   REMARKS
CHARLESTON     CLEAR     30  16  56 SW7       30.12R
$$

WVZ022-031-261200-
North Central West Virginia

CITY           SKY/WX    TMP DP  RH WIND       PRES   REMARKS
CLARKSBURG     CLOUDY    29  18  63 SW9       30.07R
MORGANTOWN     CLOUDY    28  17  63 VRB6      30.06R
$$

WVZ025-035-042-045-261200-
Southern West Virginia

CITY           SKY/WX    TMP DP  RH WIND       PRES   REMARKS
BECKLEY        CLOUDY    25  14  63 NW9       30.03R
LOGAN          CLOUDY    28  16  59 W6        30.10R
BLUEFIELD      MOCLDY    23  13  65 W10G22    30.02R
LEWISBURG      MOCLDY    26  14  62 CALM      30.02R
$$

WVZ047-261200-
Northern Mountains of West Virginia

CITY           SKY/WX    TMP DP  RH WIND       PRES   REMARKS
ELKINS         FLURRIES  26  18  71 W5        30.04R
$$

WVZ052-261200-
Eastern Panhandle of West Virginia

CITY           SKY/WX    TMP DP  RH WIND       PRES   REMARKS
MARTINSBURG    CLOUDY    32  14  47 NW15G21   30.03R
PETERSBURG     CLOUDY    33  17  53 W8        30.05R
$$



USA.gov is the U.S. government's official web portal to all federal, state and local government web resources and services.